TimeCDT,TemperatureF,Dew PointF,Humidity,Sea Level PressureIn,VisibilityMPH,Wind Direction,Wind SpeedMPH,Gust SpeedMPH,PrecipitationIn,Events,Conditions,WindDirDegrees,DateUTC
12:53 AM,46.9,39.0,74,29.86,10.0,NE,5.8,-,N/A,,Clear,40,2012-10-22 05:53:00
1:53 AM,45.0,39.9,82,29.86,10.0,NNE,4.6,-,N/A,,Clear,30,2012-10-22 06:53:00
2:53 AM,43.0,39.9,89,29.86,10.0,NNW,3.5,-,N/A,,Partly Cloudy,340,2012-10-22 07:53:00
3:06 AM,44.6,41.0,87,29.89,10.0,North,6.9,-,N/A,,Mostly Cloudy,10,2012-10-22 08:06:00
3:35 AM,44.6,41.0,87,29.89,9.0,North,8.1,-,N/A,,Scattered Clouds,10,2012-10-22 08:35:00
3:42 AM,44.6,42.8,93,29.89,9.0,North,5.8,-,N/A,,Mostly Cloudy,10,2012-10-22 08:42:00
3:53 AM,46.0,42.1,86,29.86,9.0,North,5.8,-,N/A,,Overcast,360,2012-10-22 08:53:00
4:53 AM,46.0,42.1,86,29.87,9.0,Variable,5.8,-,N/A,,Overcast,0,2012-10-22 09:53:00
5:53 AM,46.0,42.1,86,29.87,10.0,North,9.2,-,N/A,,Overcast,360,2012-10-22 10:53:00
6:53 AM,46.4,41.0,81,29.90,10.0,North,4.6,-,N/A,,Overcast,350,2012-10-22 11:53:00
7:53 AM,46.0,42.1,86,29.91,10.0,North,8.1,16.1,N/A,,Overcast,360,2012-10-22 12:53:00
8:53 AM,46.9,42.1,83,29.92,9.0,North,4.6,-,N/A,,Overcast,360,2012-10-22 13:53:00
9:53 AM,48.9,42.1,77,29.94,10.0,NNE,11.5,-,N/A,,Overcast,20,2012-10-22 14:53:00
10:53 AM,48.9,42.1,77,29.95,10.0,North,9.2,-,N/A,,Overcast,360,2012-10-22 15:53:00
11:45 AM,51.8,42.8,71,29.92,10.0,North,11.5,17.3,N/A,,Overcast,360,2012-10-22 16:45:00
11:53 AM,52.0,43.0,71,29.91,10.0,North,10.4,-,N/A,,Overcast,350,2012-10-22 16:53:00
12:05 PM,51.8,42.8,71,29.92,10.0,North,8.1,-,N/A,,Overcast,10,2012-10-22 17:05:00
12:39 PM,53.6,44.6,72,29.91,10.0,North,5.8,-,N/A,,Overcast,360,2012-10-22 17:39:00
12:53 PM,53.1,44.1,71,29.91,10.0,North,8.1,-,N/A,,Overcast,360,2012-10-22 17:53:00
1:53 PM,53.1,44.1,71,29.88,10.0,NNE,5.8,-,N/A,,Overcast,20,2012-10-22 18:53:00
2:53 PM,53.1,44.1,71,29.87,10.0,North,5.8,-,N/A,,Overcast,10,2012-10-22 19:53:00
3:53 PM,53.1,45.0,74,29.84,10.0,Calm,Calm,-,N/A,,Overcast,0,2012-10-22 20:53:00
4:31 PM,53.6,44.6,72,29.83,10.0,NE,5.8,-,N/A,,Overcast,50,2012-10-22 21:31:00
4:53 PM,55.0,44.1,67,29.82,10.0,NNE,6.9,-,N/A,,Mostly Cloudy,30,2012-10-22 21:53:00
5:08 PM,55.4,44.6,67,29.83,10.0,NE,5.8,-,N/A,,Mostly Cloudy,40,2012-10-22 22:08:00
5:53 PM,55.0,43.0,64,29.82,10.0,ENE,6.9,-,N/A,,Overcast,60,2012-10-22 22:53:00
6:53 PM,54.0,43.0,66,29.82,10.0,East,8.1,-,N/A,,Overcast,80,2012-10-22 23:53:00
7:53 PM,54.0,42.1,64,29.82,10.0,East,5.8,-,N/A,,Overcast,80,2012-10-23 00:53:00
8:53 PM,54.0,43.0,66,29.81,10.0,ENE,4.6,-,N/A,,Overcast,70,2012-10-23 01:53:00
9:53 PM,53.1,45.0,74,29.81,10.0,ESE,11.5,-,N/A,,Overcast,110,2012-10-23 02:53:00